Date String (YYYY-MM-DD hh:mm:ss) UTC,Instrument flags,absolute air pressure of the measurement (hPa),sample flow rate (lpm),inlet stack bypass flow (lpm),air temperature of the measurement (°C),ambient temperature measured by the external sensor (°C),aerosol sample conditioner tube jacket temperature (°C),OPC LED temperature (°C),internal box temperature (°C),relative humidity of the measurement (%),span deviation,mass concentration of particles derived from Lorenz-Mie calculation of OPC scattering (μg/m³),mass concentration of particles derived from Lorenz-Mie calculation of OPC scattering (μg/m³),mass concentration of particles derived from Lorenz-Mie calculation of OPC scattering (μg/m³)
DateTimeUTC,F1_M11,P_M11,Q1_M11,Q2_M11,T1_M11,T2_M11,T3_M11,T4_M11,T5_M11,U1_M11,ZSPAN_M11,X0_M11,X2_M11,X1_M11
2023-10-22 14:00:00,SystemResetWarning,0827.5,5.00,000.00,028.8,027.3,000.0,037.3,030.4,15.1,0000.0,0018.28,0004.80,0002.49
2023-10-22 14:01:00,SystemResetWarning,0827.6,5.00,000.00,028.8,027.3,000.0,037.3,030.4,15.1,0000.0,0018.10,0004.76,0002.53
2023-10-22 14:02:00,SystemResetWarning,0827.7,5.00,000.00,028.8,027.3,000.0,037.3,030.5,15.1,0000.0,0017.34,0004.70,0002.58
2023-10-22 14:03:00,SystemResetWarning,0827.7,5.00,000.00,028.8,027.3,000.0,037.3,030.5,15.1,0000.0,0016.99,0004.65,0002.64
2023-10-22 14:04:00,SystemResetWarning,0827.7,5.00,000.00,028.9,027.3,000.0,037.3,030.5,15.2,0000.0,0017.57,0004.60,0002.64
2023-10-22 14:05:00,SystemResetWarning,0827.7,5.00,000.00,028.9,027.3,000.0,037.3,030.5,15.2,0000.0,0018.95,0004.61,0002.65
2023-10-22 14:06:00,SystemResetWarning,0827.7,5.00,000.00,028.8,027.3,000.0,037.3,030.5,15.2,0000.0,0019.48,0004.63,0002.67
2023-10-22 14:07:00,SystemResetWarning,0827.7,5.00,000.00,028.9,027.4,000.0,037.3,030.5,15.1,0000.0,0019.92,0004.61,0002.72
2023-10-22 14:08:00,SystemResetWarning,0827.8,5.00,000.00,028.9,027.4,000.0,037.3,030.5,15.0,0000.0,0019.38,0004.55,0002.73
2023-10-22 14:09:00,SystemResetWarning,0827.8,5.00,000.00,028.9,027.4,000.0,037.3,030.5,14.9,0000.0,0019.01,0004.62,0002.77
2023-10-22 14:10:00,SystemResetWarning,0827.8,5.00,000.00,028.9,027.3,000.0,037.3,030.5,15.0,0000.0,0019.29,0004.63,0002.79
2023-10-22 14:11:00,SystemResetWarning,0827.7,5.00,000.00,028.9,027.4,000.0,037.3,030.5,15.1,0000.0,0019.56,0004.60,0002.80
2023-10-22 14:12:00,SystemResetWarning,0827.8,5.00,000.00,028.9,027.3,000.0,037.3,030.5,15.1,0000.0,0019.74,0004.58,0002.81
2023-10-22 14:13:00,SystemResetWarning,0827.8,5.00,000.00,028.9,027.3,000.0,037.3,030.4,15.4,0000.0,0020.06,0004.63,0002.81
2023-10-22 14:14:00,SystemResetWarning,0827.8,5.00,000.00,028.8,027.3,000.0,037.3,030.4,15.4,0000.0,0020.41,0004.60,0002.80
2023-10-22 14:15:00,SystemResetWarning,0827.8,5.00,000.00,028.8,027.3,000.0,037.3,030.4,15.5,0000.0,0020.28,0004.62,0002.80
2023-10-22 14:16:00,SystemResetWarning,0827.8,5.00,000.00,028.8,027.3,000.0,037.3,030.5,15.5,0000.0,0018.96,0004.66,0002.81
2023-10-22 14:17:00,SystemResetWarning,0827.8,5.00,000.00,028.8,027.3,000.0,037.3,030.5,15.4,0000.0,0017.39,0004.65,0002.84
2023-10-22 14:18:00,SystemResetWarning,0827.7,5.00,000.00,028.8,027.3,000.0,037.3,030.5,15.4,0000.0,0017.04,0004.68,0002.83
2023-10-22 14:19:00,SystemResetWarning,0827.8,5.00,000.00,028.8,027.3,000.0,037.2,030.4,15.4,0000.0,0017.24,0004.65,0002.80
2023-10-22 14:20:00,SystemResetWarning,0827.8,5.00,000.00,028.8,027.3,000.0,037.2,030.4,15.4,0000.0,0018.90,0004.59,0002.77
2023-10-22 14:21:00,SystemResetWarning,0827.8,5.00,000.00,028.8,027.2,000.0,037.2,030.4,15.4,0000.0,0018.88,0004.58,0002.77
2023-10-22 14:22:00,SystemResetWarning,0827.8,5.00,000.00,028.8,027.2,000.0,037.2,030.4,15.3,0000.0,0018.99,0004.66,0002.77
2023-10-22 14:23:00,SystemResetWarning,0827.8,5.00,000.00,028.8,027.2,000.0,037.2,030.4,15.3,0000.0,0019.17,0004.71,0002.77
2023-10-22 14:24:00,SystemResetWarning,0827.8,5.00,000.00,028.8,027.2,000.0,037.2,030.4,15.2,0000.0,0018.70,0004.66,0002.76
2023-10-22 14:25:00,SystemResetWarning,0827.7,5.00,000.00,028.8,027.2,000.0,037.2,030.4,15.2,0000.0,0018.31,0004.65,0002.74
2023-10-22 14:26:00,SystemResetWarning,0827.7,5.00,000.00,028.8,027.2,000.0,037.2,030.4,15.3,0000.0,0017.77,0004.67,0002.73
2023-10-22 14:27:00,SystemResetWarning,0827.8,5.00,000.00,028.8,027.2,000.0,037.2,030.4,15.2,0000.0,0017.40,0004.65,0002.73
2023-10-22 14:28:00,SystemResetWarning,0827.8,5.00,000.00,028.8,027.2,000.0,037.2,030.4,15.2,0000.0,0018.05,0004.65,0002.72
2023-10-22 14:29:00,SystemResetWarning,0827.8,5.01,000.00,028.8,027.2,000.0,037.2,030.4,15.2,0000.0,0018.40,0004.63,0002.70
2023-10-22 14:30:00,SystemResetWarning,0827.8,5.00,000.00,028.8,027.2,000.0,037.2,030.4,15.2,0000.0,0019.45,0004.69,0002.70
2023-10-22 14:31:00,SystemResetWarning,0827.9,5.00,000.00,028.8,027.2,000.0,037.2,030.4,15.3,0000.0,0018.98,0004.74,0002.70
2023-10-22 14:32:00,SystemResetWarning,0827.9,5.00,000.00,028.8,027.2,000.0,037.2,030.4,15.4,0000.0,0019.02,0004.73,0002.64
2023-10-22 14:33:00,SystemResetWarning,0827.7,4.99,000.00,028.8,027.2,000.0,037.2,030.4,15.4,0000.0,0019.57,0004.70,0002.61
2023-10-22 14:34:00,SystemResetWarning,0827.7,5.00,000.00,028.8,027.2,000.0,037.2,030.4,15.4,0000.0,0019.45,0004.63,0002.59
2023-10-22 14:35:00,SystemResetWarning,0827.8,5.00,000.00,028.8,027.2,000.0,037.2,030.4,15.5,0000.0,0020.03,0004.62,0002.55
2023-10-22 14:36:00,SystemResetWarning,0827.8,4.99,000.00,028.8,027.2,000.0,037.2,030.4,15.5,0000.0,0020.18,0004.59,0002.54
2023-10-22 14:37:00,SystemResetWarning,0827.7,5.00,000.00,028.8,027.2,000.0,037.2,030.4,15.5,0000.0,0021.24,0004.57,0002.51
2023-10-22 14:38:00,SystemResetWarning,0827.8,5.00,000.00,028.8,027.2,000.0,037.2,030.4,15.5,0000.0,0021.73,0004.57,0002.48
2023-10-22 14:39:00,SystemResetWarning,0827.8,5.01,000.00,028.8,027.2,000.0,037.2,030.4,15.4,0000.0,0021.50,0004.56,0002.45
2023-10-22 14:40:00,SystemResetWarning,0827.8,5.01,000.00,028.8,027.3,000.0,037.2,030.5,15.5,0000.0,0022.45,0004.61,0002.42
2023-10-22 14:41:00,SystemResetWarning,0827.7,4.99,000.00,028.8,027.3,000.0,037.2,030.5,15.6,0000.0,0021.03,0004.56,0002.40
2023-10-22 14:42:00,SystemResetWarning,0827.8,4.99,000.00,028.8,027.3,000.0,037.2,030.5,15.6,0000.0,0019.65,0004.49,0002.39
2023-10-22 14:43:00,SystemResetWarning,0827.8,5.01,000.00,028.8,027.3,000.0,037.2,030.5,15.6,0000.0,0019.17,0004.51,0002.40
2023-10-22 14:44:00,SystemResetWarning,0827.8,5.01,000.00,028.8,027.3,000.0,037.2,030.5,15.6,0000.0,0019.32,0004.49,0002.41
2023-10-22 14:45:00,SystemResetWarning,0827.8,5.00,000.00,028.8,027.3,000.0,037.2,030.5,15.6,0000.0,0019.52,0004.41,0002.39
2023-10-22 14:46:00,SystemResetWarning,0827.8,4.99,000.00,028.8,027.4,000.0,037.2,030.5,15.5,0000.0,0019.01,0004.40,0002.39
2023-10-22 14:47:00,SystemResetWarning,0827.8,4.99,000.00,028.9,027.4,000.0,037.3,030.5,15.4,0000.0,0019.18,0004.44,0002.40
2023-10-22 14:48:00,SystemResetWarning,0827.8,4.99,000.00,028.9,027.4,000.0,037.3,030.5,15.4,0000.0,0018.52,0004.50,0002.42
2023-10-22 14:49:00,SystemResetWarning,0827.8,5.00,000.00,028.9,027.4,000.0,037.3,030.5,15.3,0000.0,0018.06,0004.50,0002.42
2023-10-22 14:50:00,SystemResetWarning,0827.8,5.01,000.00,028.9,027.4,000.0,037.3,030.5,15.4,0000.0,0018.10,0004.48,0002.40
2023-10-22 14:51:00,SystemResetWarning,0827.8,5.00,000.00,028.9,027.4,000.0,037.3,030.5,15.4,0000.0,0018.09,0004.46,0002.41
2023-10-22 14:52:00,SystemResetWarning,0827.8,4.99,000.00,028.9,027.4,000.0,037.3,030.5,15.4,0000.0,0018.17,0004.47,0002.43
2023-10-22 14:53:00,SystemResetWarning,0827.7,4.99,000.00,028.9,027.4,000.0,037.3,030.5,15.5,0000.0,0018.03,0004.48,0002.44
2023-10-22 14:54:00,SystemResetWarning,0827.8,5.00,000.00,028.9,027.4,000.0,037.3,030.5,15.5,0000.0,0017.59,0004.45,0002.43
2023-10-22 14:55:00,SystemResetWarning,0827.7,5.01,000.00,028.9,027.4,000.0,037.3,030.5,15.6,0000.0,0017.53,0004.53,0002.46
2023-10-22 14:56:00,SystemResetWarning,0827.7,5.00,000.00,028.9,027.4,000.0,037.3,030.5,15.6,0000.0,0016.24,0004.60,0002.46
2023-10-22 14:57:00,SystemResetWarning,0827.7,5.00,000.00,028.9,027.4,000.0,037.3,030.5,15.6,0000.0,0015.95,0004.64,0002.48
2023-10-22 14:58:00,SystemResetWarning,0827.7,4.99,000.00,028.9,027.4,000.0,037.3,030.6,15.6,0000.0,0015.63,0004.64,0002.48
2023-10-22 14:59:00,SystemResetWarning,0827.7,4.99,000.00,028.9,027.4,000.0,037.3,030.6,15.6,0000.0,0016.13,0004.67,0002.48
